Waarnemingen

Advertentie
Mijn weer
Lyon/Satolas, Frankrijk (7481): temperatuur & dauwpunt: 12.01.2020 11:00:00 - 18.01.2020 11:00:00 (CET)Lyon/Satolas, Frankrijk (7481): temperatuur 5cm: 12.01.2020 11:00:00 - 18.01.2020 11:00:00 (CET)Lyon/Satolas, Frankrijk (7481): temperatuur -20cm & temperatuur -100cm: 12.01.2020 11:00:00 - 18.01.2020 11:00:00 (CET)Lyon/Satolas, Frankrijk (7481): windsnelheid & windstoten: 12.01.2020 11:00:00 - 18.01.2020 11:00:00 (CET)Lyon/Satolas, Frankrijk (7481): windrichting: 12.01.2020 11:00:00 - 18.01.2020 11:00:00 (CET)Lyon/Satolas, Frankrijk (7481): luchtdruk: 12.01.2020 11:00:00 - 18.01.2020 11:00:00 (CET)Lyon/Satolas, Frankrijk (7481): zicht: 12.01.2020 11:00:00 - 18.01.2020 11:00:00 (CET)Lyon/Satolas, Frankrijk (7481): neerslag: 12.01.2020 11:00:00 - 18.01.2020 11:00:00 (CET)
Datum & Tijd tt [°C] td [°C] tt 5cm [°C] tt -20cm [°C] tt -100cm [°C] ff [km/u] ff [kn] fx [km/u] fx [kn] dd ppp [hPa] vv [km] rr [mm]
18.01.2020 11:00:00 5,1 3,6 6,8 5,3 8,4 9 5 16 9 N 1030,9 25 0,0
18.01.2020 10:00:00 3,5 2,8 2,3 5,4 8,4 4 2 11 6 WZW 1031,2 15 0,0
18.01.2020 09:00:00 1,5 1,2 -1,4 5,6 8,4 6 4 10 6 ZW 1031,4 8 0,0
18.01.2020 08:00:00 1,5 0,9 -0,6 5,7 8,4 8 4 14 8 OZO 1030,9 9 0,0
18.01.2020 07:00:00 1,8 1,4 -0,6 5,9 8,4 8 4 11 6 ZO 1030,7 20 0,0
18.01.2020 06:00:00 2,5 1,9 0,9 6,1 8,4 2 1 4 2 N 1030,7 14 0,0
18.01.2020 05:00:00 2,4 1,7 0,2 6,3 8,4 3 1 4 2 ZZO 1031,0 20 0,0
18.01.2020 04:00:00 2,7 1,8 0,3 6,5 8,4 0 0 11 6 N 1031,0 20 0,0
18.01.2020 03:00:00 3,4 2,4 0,4 6,8 8,4 6 3 7 4 ONO 1030,8 20 0,0
18.01.2020 02:00:00 4,1 2,4 1,0 6,9 8,4 0 0 7 4 N 1030,8 30 0,0
18.01.2020 01:00:00 4,6 3,4 1,0 7,1 8,4 3 2 11 6 ZW 1030,2 30 0,0
18.01.2020 00:00:00 5,5 3,7 3,3 7,3 8,4 9 5 45 24 WNW 1029,6 20 0,0
17.01.2020 23:00:00 6,7 4,9 6,1 7,4 8,3 13 7 27 15 WNW 1028,8 20 0,0
17.01.2020 22:00:00 6,8 5,6 6,1 7,4 8,3 9 5 14 8 ZZO 1028,2 12 0,0
17.01.2020 21:00:00 6,9 6,0 6,3 7,5 8,3 8 4 13 7 ZZO 1027,4 12 0,0
17.01.2020 20:00:00 7,1 6,2 6,4 7,6 8,3 6 3 9 5 Z 1026,7 15 0,0
17.01.2020 19:00:00 6,7 6,3 6,4 7,6 8,3 8 4 14 7 ZO 1025,8 15 0,0
17.01.2020 18:00:00 6,9 6,0 6,5 7,6 8,3 9 5 29 15 NNO 1024,6 15 0,8
17.01.2020 17:00:00 7,2 6,0 6,5 7,5 8,3 31 17 59 32 NW 1024,3 1,2 3,2
17.01.2020 16:00:00 10,4 7,8 10,0 7,4 8,3 11 6 21 11 ZZO 1022,0 20 0,0
17.01.2020 15:00:00 10,5 7,9 10,2 7,2 10,1 13 7 27 15 Z 1021,8 40 0,0
17.01.2020 14:00:00 10,1 7,5 8,9 7,1 10,2 18 10 35 19 Z 1022,2 40 0,6
17.01.2020 13:00:00 9,5 7,6 8,3 6,9 10,4 25 14 46 25 Z 1022,6 13 1,4
17.01.2020 12:00:00 9,4 7,5 8,1 6,8 8,3 28 15 43 23 Z 1023,3 4,0 2,8
17.01.2020 11:00:00 9,8 6,5 8,2 6,7 8,3 11 6 28 15 Z 1023,5 12 0,2
17.01.2020 10:00:00 10,3 5,1 9,7 6,6 8,3 12 6 27 15 ZO 1023,6 40 0,0
17.01.2020 09:00:00 10,2 4,8 9,3 6,6 8,3 17 9 32 17 ZZO 1023,8 60 0,0
17.01.2020 08:00:00 10,1 4,2 8,9 6,6 8,3 13 7 40 21 Z 1023,9 60 0,0
17.01.2020 07:00:00 10,3 4,0 7,2 6,6 8,3 26 14 45 24 Z 1023,3 60 0,0
17.01.2020 06:00:00 8,7 3,5 7,4 6,7 8,2 15 8 34 19 ZO 1023,6 50 0,0
17.01.2020 05:00:00 8,9 3,7 7,6 6,7 8,2 15 8 35 19 ZZO 1023,6 50 0,0
17.01.2020 04:00:00 10,5 4,6 6,1 6,8 8,2 21 11 45 25 Z 1024,1 50 0,0
17.01.2020 03:00:00 7,4 3,6 5,4 6,9 8,2 15 8 34 18 ZZO 1024,9 30 0,0
17.01.2020 02:00:00 6,7 3,3 5,6 7,0 8,2 18 10 23 12 ZO 1024,5 30 0,0
17.01.2020 01:00:00 7,5 3,7 6,6 7,1 8,2 16 9 30 16 ZO 1024,7 30 0,0
17.01.2020 00:00:00 8,2 4,0 7,0 7,2 8,2 18 10 28 15 ZO 1025,1 30 0,0
16.01.2020 23:00:00 9,3 4,5 6,6 7,4 8,2 18 10 31 17 ZZO 1025,3 40 0,0
16.01.2020 22:00:00 8,2 4,0 6,7 7,4 8,2 13 7 24 13 ZO 1026,0 40 0,0
16.01.2020 21:00:00 10,6 5,4 8,1 7,6 8,2 20 11 37 20 Z 1026,0 50 0,0
16.01.2020 20:00:00 9,8 5,2 8,2 7,7 8,2 14 8 30 16 ZZO 1026,5 50 0,0
16.01.2020 19:00:00 10,1 4,7 8,8 7,7 8,2 17 9 29 15 ZZO 1026,3 50 0,0
16.01.2020 18:00:00 11,6 4,6 10,4 7,8 8,2 17 9 36 19 Z 1026,1 50 0,0
16.01.2020 17:00:00 12,5 4,5 12,2 7,7 8,2 19 11 50 27 Z 1025,8 40 0,0
16.01.2020 16:00:00 13,3 3,4 14,2 7,6 8,2 29 16 50 27 Z 1025,9 40 0,0
16.01.2020 15:00:00 13,3 4,2 14,3 7,3 8,2 22 12 45 24 Z 1025,9 26 0,0
16.01.2020 14:00:00 13,1 4,5 14,2 7,0 8,2 22 12 43 23 Z 1026,5 40 0,0
16.01.2020 13:00:00 12,8 5,0 13,9 6,7 8,2 27 14 40 21 ZZO 1027,2 40 0,0
16.01.2020 12:00:00 11,8 5,0 11,7 6,5 8,2 22 12 40 21 Z 1028,1 40 0,0
16.01.2020 11:00:00 10,1 4,5 10,1 6,4 8,2 13 7 24 13 ZO 1028,7 40 0,0
16.01.2020 10:00:00 7,7 3,4 6,8 6,5 8,1 17 9 25 14 ZO 1028,6 40 0,0
16.01.2020 09:00:00 5,8 2,1 3,3 6,6 8,1 17 9 22 12 ZO 1028,9 40 0,0
16.01.2020 08:00:00 5,5 2,3 3,8 6,8 8,1 17 9 26 14 ZO 1028,5 31 0,0
16.01.2020 07:00:00 5,8 3,0 4,1 6,9 8,2 11 6 16 8 ZZO 1028,4 40 0,0
16.01.2020 06:00:00 6,8 3,6 3,7 7,1 8,1 9 5 13 7 O 1028,1 50 0,0
16.01.2020 05:00:00 7,2 4,0 3,3 7,2 8,1 3 2 23 12 ONO 1028,3 43 0,0
16.01.2020 04:00:00 9,1 4,9 7,7 7,2 8,1 13 7 22 12 ZZO 1028,0 50 0,0
16.01.2020 03:00:00 9,9 5,5 8,5 7,2 8,1 9 5 16 9 ZO 1028,2 50 0,0
16.01.2020 02:00:00 9,5 5,3 8,5 7,2 8,1 6 4 20 11 ZO 1028,2 50 0,0
16.01.2020 01:00:00 10,5 5,9 9,5 7,2 8,1 13 7 34 19 ZZO 1028,1 50 0,0
16.01.2020 00:00:00 10,4 5,6 9,6 7,2 8,1 18 10 37 20 ZZO 1028,0 50 0,0
15.01.2020 23:00:00 10,6 6,0 9,8 7,2 8,1 19 11 37 20 ZZO 1027,6 50 0,0
15.01.2020 22:00:00 10,4 6,0 9,2 7,3 8,1 18 10 40 22 ZZO 1027,3 50 0,0
15.01.2020 21:00:00 10,1 6,2 9,1 7,4 8,1 24 13 48 26 Z 1026,8 52 0,0
15.01.2020 20:00:00 10,3 6,4 9,5 7,4 8,1 29 16 55 30 Z 1026,7 50 0,0
15.01.2020 19:00:00 10,5 5,3 9,6 7,5 8,1 29 16 54 29 Z 1026,1 50 0,0
15.01.2020 18:00:00 11,0 5,3 10,2 7,5 8,1 34 18 63 34 Z 1025,1 50 0,0
15.01.2020 17:00:00 11,5 5,4 11,0 7,4 8,1 39 21 68 37 Z 1023,9 50 0,0
15.01.2020 16:00:00 11,9 6,2 12,3 7,3 8,1 41 22 72 39 Z 1023,3 50 0,0
15.01.2020 15:00:00 12,8 5,2 12,6 7,1 8,1 43 23 70 38 Z 1023,1 50 0,0
15.01.2020 14:00:00 12,1 6,4 11,7 6,9 8,1 36 19 69 38 ZZW 1023,3 35 0,0
15.01.2020 13:00:00 12,1 5,5 12,4 6,7 8,1 40 22 74 40 ZZW 1023,5 19 0,0
15.01.2020 12:00:00 12,5 4,7 12,5 6,6 8,1 26 14 51 27 ZZW 1023,0 50 0,0
15.01.2020 11:00:00 12,2 4,2 11,9 6,4 8,1 30 16 58 31 Z 1022,6 50 0,0
15.01.2020 10:00:00 11,8 3,3 10,9 6,4 8,0 22 12 52 28 Z 1021,6 50 0,0
15.01.2020 09:00:00 11,1 2,9 9,5 6,4 8,1 24 13 46 25 Z 1020,8 50 0,0
15.01.2020 08:00:00 10,9 3,0 9,7 6,4 8,0 27 14 53 28 Z 1020,6 50 0,0
15.01.2020 07:00:00 10,9 3,9 9,6 6,4 8,0 25 14 58 31 Z 1020,6 50 0,0
15.01.2020 06:00:00 10,7 3,0 9,5 6,4 8,1 26 14 52 28 Z 1020,0 50 0,0
15.01.2020 05:00:00 10,8 3,3 9,3 6,5 8,0 26 14 51 28 Z 1019,7 50 0,0
15.01.2020 04:00:00 10,5 3,5 9,1 6,5 8,0 22 12 66 36 ZZO 1019,9 50 0,0
15.01.2020 03:00:00 10,4 3,0 9,2 6,5 8,1 26 14 61 33 ZZO 1020,2 50 0,0
15.01.2020 02:00:00 10,5 3,3 9,3 6,6 8,1 34 18 59 32 Z 1020,3 50 0,0
15.01.2020 01:00:00 10,5 3,3 9,2 6,6 8,1 32 17 58 31 Z 1020,5 50 0,0
15.01.2020 00:00:00 10,6 3,4 9,4 6,6 8,1 29 16 58 31 Z 1020,5 50 0,0
14.01.2020 23:00:00 10,7 4,2 9,8 6,6 8,1 34 19 62 34 Z 1020,1 50 0,0
14.01.2020 22:00:00 10,8 4,7 9,5 6,6 8,0 30 16 59 32 Z 1020,0 50 0,0
14.01.2020 21:00:00 10,7 3,7 9,5 6,7 8,1 30 16 55 30 Z 1020,3 50 0,0
14.01.2020 20:00:00 10,6 4,1 9,4 6,7 8,1 27 15 48 26 ZZO 1020,3 50 0,0
14.01.2020 19:00:00 10,5 3,7 9,2 6,8 8,1 22 12 40 21 ZZO 1020,3 50 0,0
14.01.2020 18:00:00 11,0 3,8 9,9 6,8 8,1 24 13 63 34 Z 1020,1 50 0,0
14.01.2020 17:00:00 11,5 3,8 11,0 6,7 8,1 44 24 80 43 Z 1019,3 50 0,0
14.01.2020 16:00:00 12,1 3,8 12,6 6,5 8,1 38 20 64 34 Z 1019,3 50 0,0
14.01.2020 15:00:00 12,3 4,3 13,0 6,2 8,1 37 20 72 39 Z 1019,5 50 0,0
14.01.2020 14:00:00 12,6 4,0 13,3 5,9 8,1 34 19 71 38 Z 1019,6 50 0,0
14.01.2020 13:00:00 12,2 4,4 12,9 5,6 8,1 43 23 74 40 Z 1019,8 50 0,0
14.01.2020 12:00:00 11,7 3,9 11,6 5,4 8,1 43 23 76 41 Z 1020,4 50 0,0
14.01.2020 11:00:00 10,7 3,2 10,4 5,2 8,1 31 17 56 30 Z 1020,5 50 0,0
14.01.2020 10:00:00 9,3 1,9 8,9 5,2 8,1 28 15 49 26 Z 1020,4 50 0,0
14.01.2020 09:00:00 8,5 1,9 7,1 5,2 8,1 22 12 44 24 Z 1019,9 50 0,0
14.01.2020 08:00:00 8,1 1,7 6,9 5,2 8,1 21 11 43 23 Z 1019,7 80 0,0
14.01.2020 07:00:00 8,2 2,4 7,1 5,2 8,1 27 15 57 31 Z 1019,5 60 0,0
14.01.2020 06:00:00 8,1 1,9 6,9 5,2 8,1 27 15 55 30 Z 1019,3 56 0,0
14.01.2020 05:00:00 8,1 1,9 7,1 5,2 8,2 31 17 56 30 Z 1019,0 50 0,0
14.01.2020 04:00:00 8,4 2,6 7,5 5,1 8,1 33 18 65 35 Z 1018,6 50 0,0
14.01.2020 03:00:00 8,5 2,7 7,2 5,1 8,2 39 21 62 34 Z 1019,2 50 0,0
14.01.2020 02:00:00 8,2 2,6 6,9 5,1 8,2 31 17 51 28 Z 1019,5 50 0,0
14.01.2020 01:00:00 8,2 2,2 6,7 5,2 8,2 29 15 53 29 Z 1019,8 50 0,0
14.01.2020 00:00:00 8,1 2,5 5,1 5,2 8,2 18 10 48 26 ZZO 1020,1 40 0,0
13.01.2020 23:00:00 6,7 2,8 5,1 5,3 8,2 15 8 37 20 ZZO 1019,9 35 0,0
13.01.2020 22:00:00 7,4 3,1 5,7 5,4 8,2 19 10 33 18 ZZO 1019,7 40 0,0
13.01.2020 21:00:00 7,5 2,6 6,2 5,5 8,2 16 9 36 19 ZO 1019,9 40 0,0
13.01.2020 20:00:00 7,6 1,9 6,0 5,6 8,2 17 9 28 15 ZO 1020,6 40 0,0
13.01.2020 19:00:00 7,7 1,5 6,3 5,7 8,2 16 9 29 15 ZO 1020,9 25 0,0
13.01.2020 18:00:00 7,5 2,0 5,9 5,7 8,2 14 8 27 14 ZO 1020,7 25 0,0
13.01.2020 17:00:00 7,7 2,6 6,7 5,6 8,2 12 6 22 12 ZZO 1020,9 25 0,0
13.01.2020 16:00:00 8,5 2,9 9,1 5,5 8,3 14 8 22 12 ZO 1020,7 18 0,0
13.01.2020 15:00:00 6,7 2,8 7,2 5,2 8,3 9 5 13 7 OZO 1022,1 15 0,0
13.01.2020 14:00:00 6,8 3,2 7,7 4,9 8,2 10 5 18 10 OZO 1023,0 12 0,0
13.01.2020 13:00:00 5,9 2,4 7,4 4,7 8,2 10 6 21 12 ZO 1023,9 10 0,0
13.01.2020 12:00:00 4,7 1,5 5,4 4,4 8,2 15 8 27 14 ZO 1025,0 8 0,0
13.01.2020 11:00:00 3,7 1,7 2,3 4,3 8,3 19 10 26 14 ZO 1025,9 5 0,0
13.01.2020 10:00:00 1,4 0,5 1,5 4,3 8,3 11 6 18 10 ZO 1026,4 3,5 0,0
13.01.2020 09:00:00 1,1 0,1 0,7 4,3 8,2 6 3 10 5 ZO 1026,7 3,5 0,0
13.01.2020 08:00:00 0,7 -0,2 0,4 4,3 8,3 4 2 18 10 Z 1026,7 3,5 0,0
13.01.2020 07:00:00 0,6 -0,3 -0,2 4,4 8,2 13 7 19 11 ZO 1026,8 2,8 0,0
13.01.2020 06:00:00 0,4 -0,3 -0,2 4,5 8,3 8 4 13 7 ZZO 1027,3 2,7 0,0
13.01.2020 05:00:00 0,7 -0,2 0,0 4,6 8,3 2 1 10 5 ZZO 1027,5 2,5 0,0
13.01.2020 04:00:00 0,3 -0,4 -1,7 4,7 8,3 7 4 13 7 ZO 1028,1 2,8 0,0
13.01.2020 03:00:00 0,3 -0,6 -1,7 4,9 8,3 6 3 8 5 ZO 1028,5 1,5 0,0
13.01.2020 02:00:00 0,9 0,2 -1,5 5,0 8,3 4 2 9 5 ZZO 1028,6 2,3 0,0
13.01.2020 01:00:00 0,8 -0,2 -1,9 5,2 8,3 3 2 7 4 ZO 1029,2 2,5 0,0
13.01.2020 00:00:00 1,0 0,1 -2,1 5,4 8,3 3 1 5 3 Z 1029,8 3,2 0,0
12.01.2020 23:00:00 1,7 0,5 -1,6 5,6 8,3 2 1 13 7 WNW 1029,8 6 0,0
12.01.2020 22:00:00 2,0 0,7 -1,0 5,8 8,3 2 1 6 4 ZO 1030,1 4,5 0,0
12.01.2020 21:00:00 2,8 1,6 -0,6 6,0 8,3 3 1 4 2 ZW 1030,3 9 0,0
12.01.2020 20:00:00 3,3 1,5 -0,1 6,2 8,3 3 2 10 5 N 1030,5 10 0,0
12.01.2020 19:00:00 3,7 1,7 0,7 6,4 8,3 5 3 12 7 N 1030,3 10 0,0
12.01.2020 18:00:00 4,6 1,8 1,5 6,5 8,3 8 4 12 6 NNO 1030,1 15 0,0
12.01.2020 17:00:00 6,3 2,2 5,9 6,4 8,3 5 3 10 5 NNW 1029,8 15 0,0
12.01.2020 16:00:00 6,9 2,0 8,6 6,2 8,3 0 0 11 6 N 1029,8 15 0,0
12.01.2020 15:00:00 7,8 2,9 9,5 5,9 8,3 3 2 11 6 NNO 1029,9 12 0,0
12.01.2020 14:00:00 7,0 2,7 9,1 5,5 8,3 6 3 16 8 NO 1030,4 12 0,0
12.01.2020 13:00:00 5,5 2,1 9,2 5,1 8,3 5 3 13 7 N 1031,4 12 0,0
12.01.2020 12:00:00 5,1 2,1 6,3 4,9 8,3 0 0 15 8 N 1032,2 11 0,0
12.01.2020 11:00:00 3,3 2,0 5,6 4,9 8,3 8 4 23 13 ZO 1032,7 6 0,0

tt = temperatuur
td = dauwpunt
tt 5cm = temperatuur 5cm
tt -20cm = temperatuur -20cm
tt -100cm = temperatuur -100cm
ff = windsnelheid
fx = windstoten
dd = windrichting
ppp = luchtdruk
vv = zicht
rr = neerslag

Weerstations in de omgeving